Weather History for Seldovia, AK

Change the Weather History Date:

Thursday, September 5, 2013

  Actual Average (PAHO) Record (PAHO)
Temperature  
Mean Temperature 52 °F -  
Max Temperature 57 °F 57 °F 77 °F (2014)
Min Temperature 46 °F 41 °F 29 °F (1960)
Degree Days  
Heating Degree Days 14    
Growing Degree Days 2 (Base 50)    
Moisture  
Dew Point 45 °F    
Average Humidity 75    
Maximum Humidity 86    
Minimum Humidity 57    
Precipitation  
Precipitation 0.01 in - - ()
Sea Level Pressure  
Sea Level Pressure 29.94 in    
Wind  
Wind Speed 3 mph (South)    
Max Wind Speed 14 mph    
Max Gust Speed 18 mph    
Visibility 10 miles    
Events Rain    
Averages and records for this station are not official NWS values.
T = Trace of Precipitation, MM = Missing Value Source: NWS Daily Summary

Daily Weather History Graph

Daily Weather History Graph

Search for Another Location

Airport:

Trip Planner

Search our weather history database for the weather conditions in past years. The results will help you decide how hot, cold, wet, or windy it might be!

Date:

Astronomy

Sep. 05, 2013 Rise Set
Actual Time 7:13 AM AKDT 8:55 PM AKDT
Civil Twilight 6:30 AM AKDT 9:38 PM AKDT
Nautical Twilight 5:35 AM AKDT 10:32 PM AKDT
Astronomical Twilight 4:29 AM AKDT 11:37 PM AKDT
Moon 7:53 AM AKDT (9/5) 8:27 PM AKDT (9/5)
Length of Visible Light 15h 08m
Length of Day
13h 42m
New Moon, 0% of the Moon is Illuminated
Sep 5
New Moon
Sep 12
First Quarter
Sep 19
Full
Sep 26
Last Quarter
Oct 4
New

Hourly Weather History & Observations

Time (AKDT) Temp. Dew Point Humidity Pressure Visibility Wind Dir Wind Speed Gust Speed Precip Events Conditions
12:53 AM 46.9 °F 41.0 °F 80% 29.82 in 10.0 mi Calm Calm - N/A   Clear
1:53 AM 48.0 °F 42.1 °F 80% 29.84 in 10.0 mi Calm Calm - N/A   Clear
2:53 AM 51.1 °F 43.0 °F 74% 29.84 in 10.0 mi Calm Calm - N/A   Mostly Cloudy
3:53 AM 51.1 °F 44.1 °F 77% 29.85 in 10.0 mi SSE 3.5 mph - N/A   Scattered Clouds
4:53 AM 48.9 °F 45.0 °F 86% 29.87 in 10.0 mi Calm Calm - N/A   Overcast
5:53 AM 50.0 °F 45.0 °F 83% 29.88 in 10.0 mi Calm Calm - N/A   Overcast
6:53 AM 52.0 °F 44.1 °F 74% 29.89 in 10.0 mi Variable 3.5 mph - N/A   Overcast
7:53 AM 52.0 °F 45.0 °F 77% 29.91 in 10.0 mi South 6.9 mph - N/A   Mostly Cloudy
8:53 AM 53.1 °F 45.0 °F 74% 29.93 in 10.0 mi Calm Calm - N/A   Overcast
9:53 AM 53.1 °F 46.9 °F 80% 29.94 in 8.0 mi SE 5.8 mph - 0.00 in Rain Light Rain
10:53 AM 53.1 °F 46.0 °F 77% 29.96 in 10.0 mi South 11.5 mph - 0.00 in   Overcast
11:53 AM 53.1 °F 46.9 °F 80% 29.97 in 8.0 mi South 9.2 mph 18.4 mph 0.01 in Rain Light Rain
12:53 PM 53.1 °F 46.9 °F 80% 29.99 in 9.0 mi Variable 4.6 mph - 0.00 in Rain Light Rain
1:53 PM 54.0 °F 46.0 °F 75% 29.99 in 10.0 mi Variable 6.9 mph - 0.00 in   Overcast
2:53 PM 57.9 °F 45.0 °F 62% 29.99 in 10.0 mi South 13.8 mph 18.4 mph N/A   Mostly Cloudy
3:53 PM 57.9 °F 43.0 °F 58% 29.99 in 10.0 mi South 10.4 mph - N/A   Mostly Cloudy
4:53 PM 57.0 °F 43.0 °F 59% 29.99 in 10.0 mi Variable 5.8 mph - N/A   Mostly Cloudy
5:53 PM 57.0 °F 44.1 °F 62% 29.99 in 10.0 mi Variable 6.9 mph - N/A   Mostly Cloudy
6:53 PM 57.0 °F 42.1 °F 57% 29.98 in 10.0 mi Variable 6.9 mph - N/A   Overcast
7:53 PM 55.9 °F 42.1 °F 60% 29.97 in 10.0 mi Calm Calm - N/A   Overcast
8:53 PM 52.0 °F 46.9 °F 83% 29.98 in 10.0 mi Calm Calm - N/A   Mostly Cloudy
9:53 PM 50.0 °F 46.0 °F 86% 29.98 in 10.0 mi Calm Calm - N/A   Overcast
10:53 PM 50.0 °F 46.0 °F 86% 29.97 in 10.0 mi Calm Calm - N/A   Overcast
11:53 PM 50.0 °F 46.0 °F 86% 29.96 in 10.0 mi Calm Calm - N/A   Overcast